Orbital Elements at Epoch 2459200.5 (2020-Dec-17.0) TDB
Reference: JPL 26 (heliocentric ecliptic J2000)
Element | Value | Uncertainty (1-sigma) | Units |
e | .07920094016518246 | 3.7521e-08 | |
a | 2.970408633465936 | 1.9242e-08 | au |
q | 2.735149477020659 | 1.1395e-07 | au |
i | 9.57935355371332 | 3.89e-06 | deg |
node | 256.0562242585301 | 2.6167e-05 | deg |
peri | 249.1243690315231 | 3.9899e-05 | deg |
M | 254.7992764382674 | 3.2627e-05 | deg |
tp | 2459746.935556028270 (2022-Jun-16.43555603) | 0.00017191 | TDB |
period | 1869.918699320945 5.12 | 1.817e-05 4.975e-08 | d yr |
n | .1925217391166434 | 1.8707e-09 | deg/d |
Q | 3.205667789911213 | 2.0766e-08 | au |
|
| | Orbit Determination Parameters
Additional Information
|